AAL921 KMIA-KMCO

Flight info

Callsign AAL921
Flight time N/A
Altitude 22000
Route FLMGO2 WAPOM MUNGI1
Aircraft B738/M-SDE2E3FGHIRWXY/LB1

Departure

Time 2026-05-05 17:03
Airport Miami International Airport (KMIA)

Arrival

Time N/A
Airport Orlando International Airport (KMCO)
Time Latitude Longitude Altitude Speed Heading
2026-05-05 16:29 25.79720 -80.28494 16 ft 0 kts
2026-05-05 16:31 25.79727 -80.28444 15 ft 0 kts 358°
2026-05-05 16:51 25.79718 -80.28444 14 ft 4 kts 358°
2026-05-05 16:51 25.79706 -80.28443 14 ft 4 kts 358°
2026-05-05 16:52 25.79687 -80.28442 17 ft 4 kts 347°
2026-05-05 16:52 25.79671 -80.28430 16 ft 4 kts 276°
2026-05-05 16:52 25.79671 -80.28402 15 ft 3 kts 267°
2026-05-05 16:53 25.79671 -80.28397 14 ft 0 kts 267°
2026-05-05 16:55 25.79671 -80.28400 14 ft 2 kts 267°
2026-05-05 16:55 25.79670 -80.28426 14 ft 5 kts 267°
2026-05-05 16:56 25.79668 -80.28481 14 ft 9 kts 266°
2026-05-05 16:56 25.79654 -80.28562 14 ft 12 kts 254°
2026-05-05 16:56 25.79648 -80.28656 14 ft 12 kts 265°
2026-05-05 16:56 25.79642 -80.28747 14 ft 12 kts 269°
2026-05-05 16:57 25.79683 -80.28812 14 ft 11 kts 350°
2026-05-05 16:57 25.79761 -80.28818 14 ft 11 kts 357°
2026-05-05 16:57 25.79845 -80.28822 14 ft 13 kts 358°
2026-05-05 16:57 25.79937 -80.28826 15 ft 13 kts 357°
2026-05-05 16:58 25.80012 -80.28868 17 ft 13 kts 282°
2026-05-05 16:58 25.80009 -80.28966 15 ft 13 kts 267°
2026-05-05 16:58 25.80006 -80.29061 15 ft 12 kts 268°
2026-05-05 16:58 25.80002 -80.29155 15 ft 12 kts 267°
2026-05-05 16:59 25.79998 -80.29246 15 ft 12 kts 268°
2026-05-05 16:59 25.79994 -80.29333 14 ft 11 kts 266°
2026-05-05 16:59 25.79991 -80.29419 14 ft 11 kts 268°
2026-05-05 16:59 25.79987 -80.29503 13 ft 11 kts 268°
2026-05-05 17:00 25.79984 -80.29584 13 ft 10 kts 267°
2026-05-05 17:00 25.79981 -80.29662 13 ft 10 kts 267°
2026-05-05 17:00 25.79977 -80.29739 13 ft 10 kts 267°
2026-05-05 17:00 25.79974 -80.29814 13 ft 10 kts 268°
2026-05-05 17:01 25.79971 -80.29886 13 ft 10 kts 267°
2026-05-05 17:01 25.79978 -80.29970 12 ft 13 kts 284°
2026-05-05 17:01 25.80005 -80.30073 13 ft 14 kts 288°
2026-05-05 17:01 25.80074 -80.30079 13 ft 14 kts 77°
2026-05-05 17:02 25.80082 -80.29883 12 ft 50 kts 88°
2026-05-05 17:02 25.80108 -80.29268 17 ft 107 kts 87°
2026-05-05 17:02 25.80143 -80.28270 17 ft 150 kts 90°
2026-05-05 17:02 25.80202 -80.27100 397 ft 154 kts 85°
2026-05-05 17:03 25.80295 -80.25837 585 ft 176 kts 86°
2026-05-05 17:03 25.80367 -80.24457 979 ft 186 kts 85°
2026-05-05 17:03 25.80430 -80.22926 1253 ft 211 kts 85°
2026-05-05 17:03 25.80492 -80.21210 1480 ft 233 kts 86°
2026-05-05 17:04 25.80558 -80.19335 1745 ft 256 kts 83°
2026-05-05 17:04 25.81131 -80.17479 2511 ft 259 kts 51°
2026-05-05 17:04 25.82550 -80.16262 3371 ft 263 kts 20°
2026-05-05 17:04 25.84360 -80.15809 4217 ft 268 kts
2026-05-05 17:05 25.86206 -80.15818 5215 ft 270 kts 359°
2026-05-05 17:05 25.88107 -80.15691 5950 ft 275 kts
2026-05-05 17:05 25.90012 -80.15762 6659 ft 276 kts 342°
2026-05-05 17:05 25.91821 -80.16473 7461 ft 278 kts 338°
2026-05-05 17:06 25.93666 -80.17178 8236 ft 281 kts 339°
2026-05-05 17:06 25.95534 -80.17853 9011 ft 283 kts 340°
2026-05-05 17:06 25.97408 -80.18514 9795 ft 287 kts 339°
2026-05-05 17:06 25.99257 -80.19380 10388 ft 292 kts 322°
2026-05-05 17:07 26.00875 -80.20881 10581 ft 314 kts 315°
2026-05-05 17:07 26.02545 -80.22579 10741 ft 336 kts 315°
2026-05-05 17:07 26.04314 -80.24383 11001 ft 351 kts 315°
2026-05-05 17:07 26.06115 -80.26204 11538 ft 357 kts 315°
2026-05-05 17:08 26.07964 -80.28059 12218 ft 358 kts 315°
2026-05-05 17:08 26.09826 -80.29917 12907 ft 360 kts 315°
2026-05-05 17:08 26.11701 -80.31784 13571 ft 363 kts 315°
2026-05-05 17:08 26.13592 -80.33665 14195 ft 365 kts 315°
2026-05-05 17:09 26.15474 -80.35537 14828 ft 367 kts 316°
2026-05-05 17:09 26.17384 -80.37436 15493 ft 367 kts 316°
2026-05-05 17:09 26.19297 -80.39341 16171 ft 368 kts 316°
2026-05-05 17:09 26.21217 -80.41252 16808 ft 370 kts 316°
2026-05-05 17:10 26.23205 -80.43085 17408 ft 374 kts 325°
2026-05-05 17:10 26.25524 -80.44381 18019 ft 379 kts 332°
2026-05-05 17:10 26.27931 -80.45610 18555 ft 381 kts 332°
2026-05-05 17:10 26.30355 -80.46864 19034 ft 383 kts 332°
2026-05-05 17:11 26.32780 -80.48136 19529 ft 385 kts 331°
2026-05-05 17:11 26.35216 -80.49423 20025 ft 387 kts 331°
2026-05-05 17:11 26.37625 -80.50703 20496 ft 389 kts 331°
2026-05-05 17:11 26.40087 -80.52013 20963 ft 392 kts 331°
2026-05-05 17:12 26.41393 -80.52709 21240 ft 391 kts 330°
2026-05-05 17:12 26.41951 -80.53005 21413 ft 389 kts 330°
2026-05-05 17:12 26.44382 -80.54299 21892 ft 385 kts 330°